Temp_Advection
nan nan nan nan nan nan nan nan nan nan nan nan nan nan nan nan nan nan nan nan nan nan nan nan nan nan nan nan nan nan nan nan nan nan nan nan nan nan nan nan nan nan
nan 1 1 1 1 0 0 0 0 0 0 1 1 1 1 1 1 0 0 0 0 0 0 0 0 -0 0 0 0 0 0 -0 0 0 -0 -0 0 0 0 0 0 nan
nan 1 1 1 1 0 0 0 0 0 1 1 1 1 1 1 1 0 0 0 0 0 1 0 0 0 0 0 0 0 0 -0 -0 0 -0 -0 0 0 0 0 0 nan
nan 1 1 1 1 0 0 0 0 1 1 1 1 1 1 1 1 0 0 0 0 0 0 0 0 0 0 0 0 -0 -0 0 -0 -0 -0 -0 0 0 0 0 -0 nan
nan 1 1 1 1 0 0 0 1 1 1 1 1 1 1 1 1 0 0 0 0 0 0 0 0 -0 0 0 0 0 -0 -0 -0 -0 -0 -0 0 0 -0 -0 -0 nan
nan 1 1 1 0 0 0 0 1 1 1 1 1 1 1 1 1 1 0 0 0 0 0 0 -0 -0 0 0 0 0 0 -0 -0 -0 -0 -1 -0 -0 -0 -0 -0 nan
nan 1 1 1 0 0 0 0 1 1 1 1 1 1 1 1 1 1 1 1 0 0 0 0 -0 -0 -0 0 0 0 0 0 0 -0 -0 -0 -0 -0 -0 -0 -0 nan
nan 1 1 1 0 0 0 0 1 1 1 1 1 1 1 1 1 1 1 1 1 0 0 -0 -0 -0 -0 0 0 0 1 1 0 -0 -0 -0 -0 -0 -0 0 0 nan
nan 1 1 1 0 0 0 1 1 1 1 1 1 1 1 1 1 1 2 2 1 1 0 -0 -0 -0 -0 0 0 1 1 1 0 -0 -0 -0 -0 -0 0 0 0 nan
nan 1 1 0 0 0 1 1 1 1 1 1 1 1 1 1 1 1 2 2 1 1 0 0 -0 -0 -0 0 0 1 0 0 0 -0 -0 -0 -0 0 0 0 0 nan
nan 1 1 0 1 1 1 1 1 1 1 1 1 1 1 1 1 1 2 1 1 1 1 0 -0 -0 0 0 0 1 0 0 -0 -0 -0 -0 -0 0 0 0 0 nan
nan 1 1 1 1 1 1 1 1 1 1 1 1 1 1 1 1 1 1 1 1 1 0 0 0 0 0 0 0 1 0 -0 -0 -0 -0 0 0 0 0 0 0 nan
nan 1 1 1 1 1 1 1 1 1 1 1 1 1 1 1 1 1 1 1 1 1 0 0 0 0 0 0 0 0 0 -0 -0 -0 0 0 0 0 0 0 0 nan
nan 1 1 1 1 1 1 1 1 1 1 1 1 1 1 1 1 2 2 1 1 0 0 0 1 0 0 0 0 0 0 -0 -0 0 0 0 0 0 0 0 0 nan
nan 1 1 1 1 1 1 1 1 1 1 1 1 0 1 1 1 2 2 1 1 0 0 0 0 0 0 1 0 -0 -0 -0 0 0 0 0 0 0 0 0 0 nan
nan 1 1 1 1 1 1 1 1 1 1 1 1 1 1 1 1 1 1 1 1 0 0 0 0 0 0 1 0 -0 -0 0 0 0 0 0 0 0 0 0 -0 nan
nan 1 1 1 1 1 1 1 1 1 1 1 1 1 1 1 1 1 1 1 1 0 0 0 0 0 1 0 0 -0 0 1 1 1 0 1 0 0 1 0 -0 nan
nan 2 1 1 1 1 1 1 1 1 1 1 1 1 1 1 0 0 1 1 1 0 -0 0 0 1 1 0 -0 -1 -0 1 1 1 1 1 1 1 0 0 -0 nan
nan 1 1 1 1 1 1 1 1 1 1 1 1 1 1 1 0 1 1 1 1 0 0 0 0 1 1 0 0 -0 -1 0 1 1 1 1 1 0 0 -0 -0 nan
nan 1 1 1 1 1 1 1 1 1 1 1 1 1 1 1 0 1 0 1 1 0 0 -0 -0 1 1 0 0 -0 -1 0 1 2 1 1 0 0 -0 -0 -0 nan
nan 1 0 1 1 1 1 1 1 1 1 1 1 0 1 0 0 1 0 0 1 0 -0 -1 -0 1 1 0 0 -0 -1 0 1 1 1 0 0 0 -0 0 0 nan
nan 0 1 1 1 1 1 0 1 1 1 1 0 0 0 0 0 1 1 0 1 0 -0 -1 -0 1 1 0 0 -0 0 1 1 0 0 -0 -0 0 0 0 1 nan
nan 1 1 1 1 1 1 1 1 1 1 1 0 0 0 0 0 0 1 1 0 0 0 -1 -0 1 1 0 0 1 1 1 0 -0 -0 -1 -1 -0 0 0 0 nan
nan 1 1 1 1 1 0 1 1 1 1 1 0 0 0 0 0 0 0 1 1 1 0 -1 -1 0 1 0 0 1 1 1 0 0 -1 -1 -1 -0 -0 0 0 nan
nan 1 1 1 1 1 1 1 1 1 1 1 1 0 0 0 0 -0 -0 1 1 1 1 -0 -1 -0 1 0 0 1 2 1 0 0 -0 -1 -1 -1 -0 0 -0 nan
nan nan nan nan nan nan nan nan nan nan nan nan nan nan nan nan nan nan nan nan nan nan nan nan nan nan nan nan nan nan nan nan nan nan nan nan nan nan nan nan nan nan
Wind_Speed
30 29 30 31 32 33 34 35 37 37 35 33 32 30 29 28 28 29 30 30 30 30 28 27 27 28 29 29 30 30 30 29 29 28 26 26 26 25 25 25 24 24
30 29 30 32 33 33 34 35 36 35 34 32 30 29 28 28 28 29 30 30 30 30 28 27 27 28 28 29 29 30 29 29 28 26 25 26 26 26 26 25 25 25
30 30 31 32 33 34 34 35 35 34 32 31 30 29 29 28 29 30 30 30 30 29 28 28 28 28 29 29 29 29 28 28 27 25 25 26 26 26 26 25 26 25
30 31 32 33 34 33 33 34 34 33 31 31 30 29 29 29 30 30 30 30 29 29 28 28 28 29 29 29 29 28 27 27 26 26 26 27 27 27 27 26 26 26
31 32 33 33 33 32 33 34 33 32 31 31 30 29 30 30 30 31 30 30 29 29 28 28 29 30 30 30 29 28 27 27 27 26 27 28 28 28 28 27 27 27
32 32 33 32 32 32 34 33 32 31 31 31 30 30 30 30 31 31 31 30 29 28 29 29 30 31 31 30 29 28 27 28 28 28 29 30 30 29 29 28 28 28
32 32 32 31 32 33 33 32 31 31 31 31 30 30 31 31 31 31 31 30 29 29 29 30 31 32 31 30 28 28 28 29 30 30 31 32 32 31 30 29 29 29
32 31 31 31 32 32 32 31 31 31 30 30 30 30 30 31 32 32 31 30 30 30 30 31 32 32 31 30 28 29 29 30 31 32 34 34 33 32 31 29 29 30
31 31 31 32 32 32 31 31 31 31 30 30 30 30 31 31 32 32 32 31 30 31 31 32 32 32 30 29 29 30 30 31 33 34 35 35 33 33 31 30 30 30
31 32 32 32 32 32 31 31 30 30 29 30 30 31 31 31 32 32 32 31 31 32 32 32 32 31 30 29 29 30 32 33 35 36 36 35 34 33 32 31 30 30
32 32 32 32 32 32 31 30 30 29 29 30 30 31 31 32 32 32 32 32 32 32 32 33 33 31 30 30 30 31 33 35 36 37 36 35 34 33 32 31 30 30
33 33 32 32 32 31 30 30 29 29 30 30 30 31 32 32 32 32 31 31 31 32 32 33 33 31 31 31 32 33 34 36 37 36 35 34 33 32 30 29 29 29
34 33 32 32 31 30 30 29 29 30 30 30 30 31 31 32 32 31 31 31 31 32 33 33 33 32 32 32 33 34 35 36 36 35 34 33 32 30 29 28 29 29
33 32 31 31 30 30 29 30 30 30 30 30 30 31 31 31 31 31 31 31 32 33 33 33 33 33 33 34 34 35 36 36 35 33 33 31 30 29 29 29 30 30
32 31 31 30 30 30 30 30 30 30 30 30 30 30 30 30 31 31 31 31 32 33 33 33 34 34 34 35 35 36 35 34 33 31 31 31 30 30 30 30 31 31
32 31 31 30 30 30 30 30 30 30 30 30 30 30 30 30 30 30 31 32 33 33 33 34 34 35 35 35 35 35 33 32 32 32 31 32 33 33 32 32 33 34
32 31 31 30 30 30 30 30 30 30 30 30 30 30 29 29 30 31 31 32 33 34 34 34 35 35 34 34 33 31 30 30 32 33 33 33 33 33 33 34 34 35
32 31 30 30 30 30 30 30 30 30 30 30 30 29 29 29 30 31 32 32 33 34 34 35 35 34 33 33 32 30 28 29 31 32 33 33 33 33 34 35 36 36
31 30 30 30 30 30 30 29 29 29 29 29 29 29 30 30 31 32 32 32 33 33 34 35 35 34 33 32 32 30 29 28 29 31 32 32 33 34 36 36 37 37
30 30 30 31 31 30 30 29 29 29 28 28 29 30 30 31 32 32 32 32 32 33 34 35 35 34 33 32 31 31 29 27 28 31 33 34 34 35 36 37 37 37
28 29 30 30 30 29 29 29 28 28 28 28 29 30 31 32 32 33 33 33 33 33 34 35 35 34 33 32 31 30 28 28 29 32 33 35 35 36 37 37 37 37
28 29 30 29 29 29 29 29 28 28 28 28 29 30 31 32 33 33 34 34 33 34 35 36 35 33 32 32 31 30 28 28 30 32 33 34 35 36 36 36 36 35
28 29 29 29 29 29 29 28 28 28 28 28 29 31 31 32 33 34 34 35 35 35 35 36 36 34 32 31 31 30 28 27 30 31 33 33 34 34 34 34 33 32
28 28 29 29 29 29 28 28 28 28 29 28 30 31 32 32 33 34 35 35 35 35 35 36 36 34 32 31 30 29 27 27 29 30 32 32 32 32 32 32 31 31
27 28 28 28 29 28 28 28 29 29 29 29 30 31 32 33 33 35 35 35 35 35 34 34 35 34 31 30 30 29 26 25 27 28 30 31 30 30 30 30 30 30
27 27 28 28 28 27 27 28 29 29 29 30 31 31 32 33 33 34 36 35 34 34 34 33 33 33 30 29 28 27 25 23 24 27 29 29 28 28 29 30 30 30
Wind_Direction
294 296 299 303 306 307 309 311 312 310 306 302 301 301 301 300 300 300 301 301 300 298 296 294 291 290 291 292 292 291 290 291 290 287 285 285 287 287 287 289 290 291
292 294 297 300 302 304 307 310 310 307 303 301 301 301 301 301 299 299 300 299 298 297 296 293 290 290 292 293 293 291 289 290 289 287 284 284 286 286 287 289 290 291
290 292 295 297 299 303 307 309 308 305 302 301 301 302 302 301 299 298 298 298 297 295 294 292 290 292 294 295 295 291 289 289 288 285 285 286 288 288 290 291 291 291
288 290 292 294 298 303 307 307 305 303 301 300 301 301 301 299 298 297 297 297 296 293 291 290 291 293 295 296 295 290 288 287 287 286 287 287 289 290 292 292 292 290
286 287 290 293 298 304 305 304 302 300 298 298 299 299 298 297 296 296 296 295 294 292 291 291 292 294 296 296 293 288 287 288 289 290 290 290 291 292 293 293 292 291
283 285 289 294 299 303 302 300 299 297 296 296 296 296 296 296 295 295 295 294 293 292 291 292 293 294 295 295 291 286 287 290 292 294 294 294 294 294 294 294 293 292
282 285 289 295 299 301 299 297 296 294 294 293 293 293 293 294 294 294 295 295 294 292 292 293 293 294 295 293 288 285 287 291 295 297 297 297 296 295 294 294 292 291
281 285 290 295 298 297 295 294 292 291 291 291 290 291 292 292 292 293 294 294 293 291 291 292 292 293 293 289 285 284 287 292 296 298 298 297 296 294 294 293 291 288
281 286 292 295 295 294 292 290 289 289 289 289 289 290 290 291 291 292 292 292 291 290 290 291 292 292 290 287 284 285 289 292 295 296 297 296 294 292 292 290 288 286
283 289 293 294 293 291 288 287 287 288 288 288 288 289 289 290 290 290 289 288 288 288 289 291 291 291 289 286 285 286 289 291 293 294 294 294 292 291 290 288 286 285
286 290 292 292 290 288 286 286 287 287 287 288 288 289 289 289 288 287 286 285 285 286 289 290 291 291 289 287 286 287 288 289 291 293 293 292 291 289 288 286 284 283
288 291 291 290 287 285 284 285 286 287 287 287 288 288 288 287 287 285 284 284 284 286 288 289 290 289 287 286 286 286 287 288 290 291 291 290 289 287 285 283 281 279
289 290 289 286 283 282 283 284 285 286 286 287 288 287 287 287 286 284 284 283 284 285 287 288 289 288 286 285 286 287 288 289 289 290 290 289 287 284 281 279 277 276
290 288 285 283 282 282 282 283 284 286 287 287 287 286 286 286 285 285 284 283 283 285 286 287 287 285 285 286 287 288 289 289 290 290 289 286 282 280 278 276 276 275
289 286 284 282 281 281 281 283 284 286 287 287 287 287 286 286 285 285 284 283 283 284 285 285 284 284 286 287 289 290 290 291 291 290 287 284 282 281 280 278 278 278
287 285 283 281 280 280 281 282 284 286 287 287 287 287 287 287 285 284 283 283 284 284 284 283 283 285 286 288 290 291 293 294 292 289 288 287 286 286 285 285 285 284
285 283 281 280 279 279 280 282 284 285 286 287 288 289 289 287 285 283 283 283 284 284 284 284 284 286 288 289 290 290 289 288 287 286 286 284 284 285 285 285 284 284
283 281 280 279 279 279 281 283 284 285 287 289 290 290 290 287 285 284 284 284 284 285 285 286 287 288 288 289 288 286 283 281 280 280 280 280 281 282 281 281 282 282
282 281 280 279 279 280 282 284 285 287 289 290 291 291 290 288 287 286 286 286 286 286 287 288 288 289 289 288 287 285 282 278 277 278 279 279 279 279 279 279 279 280
281 280 279 279 280 282 284 286 288 289 290 291 292 291 290 289 289 288 288 288 288 288 288 288 288 289 290 289 288 286 283 279 277 277 278 277 275 276 276 276 277 279
279 278 278 280 282 284 286 288 290 291 291 292 291 291 291 291 290 290 290 290 290 290 289 289 289 291 291 290 287 285 283 279 276 274 274 273 272 272 274 275 276 278
279 279 281 283 285 287 288 290 291 291 292 292 291 291 292 291 292 292 292 292 291 291 291 291 291 292 291 289 287 284 282 279 275 273 273 272 271 272 273 274 276 278
281 283 285 287 287 289 290 291 292 291 292 293 293 292 293 293 293 293 293 293 293 293 293 293 293 293 291 289 287 284 282 279 276 275 275 274 273 273 274 275 276 278
285 286 288 288 289 290 292 292 292 292 293 293 293 293 294 294 294 294 294 294 294 294 293 293 292 292 291 289 286 283 280 277 275 275 274 274 274 274 275 276 277 279
287 288 288 289 290 291 292 292 292 293 294 294 293 293 294 294 294 294 294 294 294 294 293 292 292 292 291 288 285 281 277 274 274 274 275 276 276 277 278 279 280 280
288 288 289 290 291 292 292 292 293 294 294 294 294 294 294 295 295 295 295 295 295 294 294 293 292 292 291 288 283 279 275 272 272 274 275 277 278 280 281 282 281 280
Height
1516 1515 1513 1511 1510 1509 1507 1506 1504 1502 1501 1499 1498 1496 1495 1493 1492 1490 1489 1487 1486 1485 1484 1483 1482 1481 1479 1478 1477 1476 1475 1474 1472 1472 1471 1470 1469 1468 1467 1466 1465 1464
1513 1511 1509 1508 1507 1505 1503 1502 1500 1498 1497 1495 1494 1492 1491 1490 1488 1487 1485 1484 1483 1481 1480 1479 1478 1477 1476 1475 1473 1472 1471 1470 1469 1468 1467 1466 1465 1464 1463 1462 1461 1460
1509 1507 1506 1504 1503 1501 1500 1498 1496 1494 1493 1491 1490 1488 1487 1486 1484 1483 1482 1480 1479 1478 1477 1476 1475 1474 1472 1471 1470 1468 1467 1466 1465 1465 1464 1462 1461 1460 1459 1458 1457 1456
1504 1503 1502 1501 1499 1497 1495 1494 1492 1491 1489 1487 1486 1485 1483 1482 1480 1479 1478 1477 1475 1474 1473 1472 1471 1470 1469 1467 1466 1465 1464 1463 1462 1461 1460 1458 1457 1456 1455 1454 1453 1452
1501 1500 1498 1497 1495 1493 1491 1490 1488 1487 1485 1483 1482 1481 1479 1478 1477 1475 1474 1473 1472 1470 1469 1468 1467 1466 1465 1464 1462 1461 1460 1459 1458 1457 1455 1454 1453 1452 1451 1450 1449 1448
1497 1496 1494 1492 1491 1489 1487 1486 1485 1483 1481 1480 1479 1477 1476 1474 1473 1472 1470 1469 1468 1467 1465 1464 1463 1462 1461 1460 1459 1457 1456 1455 1454 1453 1451 1450 1449 1448 1447 1446 1445 1444
1493 1492 1490 1488 1486 1485 1483 1482 1481 1480 1478 1477 1475 1473 1472 1471 1469 1468 1466 1465 1464 1463 1462 1461 1459 1458 1457 1456 1455 1453 1452 1451 1450 1449 1447 1446 1445 1444 1443 1442 1441 1440
1489 1487 1486 1484 1482 1481 1479 1478 1477 1476 1475 1473 1471 1470 1468 1467 1465 1464 1462 1461 1460 1459 1458 1457 1455 1454 1453 1452 1450 1449 1448 1447 1446 1444 1443 1441 1440 1439 1439 1438 1437 1435
1484 1483 1481 1479 1478 1477 1475 1474 1473 1472 1471 1469 1467 1466 1464 1463 1461 1460 1458 1457 1456 1454 1453 1452 1451 1450 1449 1448 1446 1445 1444 1442 1441 1440 1438 1437 1436 1435 1434 1433 1432 1430
1480 1478 1477 1475 1474 1473 1471 1471 1469 1468 1467 1465 1463 1462 1460 1459 1457 1456 1454 1453 1451 1450 1449 1448 1447 1445 1444 1443 1442 1441 1439 1438 1437 1435 1434 1432 1431 1430 1429 1428 1427 1426
1475 1474 1473 1471 1470 1469 1467 1466 1465 1464 1462 1461 1459 1458 1456 1455 1453 1452 1450 1449 1447 1446 1445 1443 1442 1441 1440 1439 1437 1436 1435 1433 1432 1430 1429 1428 1427 1426 1425 1424 1423 1422
1471 1470 1469 1467 1466 1464 1463 1462 1461 1459 1458 1457 1455 1453 1452 1450 1449 1447 1446 1444 1443 1442 1440 1439 1438 1437 1435 1434 1433 1432 1430 1429 1427 1426 1424 1423 1422 1421 1420 1419 1418 1417
1467 1466 1465 1463 1462 1460 1459 1458 1457 1455 1454 1452 1451 1449 1447 1446 1444 1443 1441 1440 1438 1437 1436 1434 1433 1432 1431 1429 1428 1427 1425 1424 1422 1421 1419 1418 1417 1416 1416 1415 1414 1413
1463 1462 1460 1459 1457 1456 1455 1454 1452 1451 1449 1448 1447 1445 1443 1442 1440 1438 1437 1435 1434 1432 1431 1430 1428 1427 1426 1425 1423 1422 1420 1418 1417 1416 1415 1413 1412 1412 1411 1410 1409 1408
1459 1457 1456 1454 1453 1452 1451 1450 1448 1447 1445 1443 1442 1440 1439 1437 1436 1434 1432 1430 1429 1428 1427 1425 1424 1422 1421 1420 1418 1416 1415 1414 1412 1411 1410 1408 1407 1406 1405 1405 1404 1403
1454 1453 1451 1450 1449 1447 1447 1445 1444 1442 1441 1439 1437 1436 1434 1433 1431 1429 1427 1426 1424 1423 1422 1420 1419 1417 1417 1415 1414 1412 1411 1409 1407 1406 1405 1403 1402 1401 1400 1399 1398 1397
1450 1448 1447 1446 1445 1443 1442 1441 1440 1438 1436 1434 1433 1431 1430 1428 1426 1424 1423 1421 1420 1418 1417 1415 1414 1413 1412 1411 1410 1409 1408 1406 1404 1402 1401 1399 1398 1396 1395 1394 1393 1392
1445 1444 1443 1441 1440 1439 1438 1437 1435 1433 1432 1430 1428 1427 1425 1423 1422 1420 1418 1417 1415 1413 1411 1410 1409 1408 1407 1406 1405 1405 1404 1403 1401 1398 1396 1395 1393 1392 1390 1389 1388 1387
1441 1439 1438 1437 1436 1435 1433 1432 1430 1429 1427 1425 1424 1422 1420 1418 1417 1415 1413 1412 1410 1408 1406 1405 1404 1403 1402 1401 1400 1400 1399 1398 1397 1394 1391 1390 1388 1387 1385 1384 1383 1382
1437 1435 1433 1432 1431 1430 1429 1427 1426 1424 1423 1421 1419 1417 1415 1414 1412 1410 1408 1407 1405 1403 1401 1400 1399 1398 1397 1396 1395 1394 1394 1393 1392 1389 1386 1384 1383 1382 1380 1379 1379 1378
1432 1431 1429 1428 1427 1426 1424 1423 1421 1420 1418 1417 1415 1413 1411 1409 1407 1405 1404 1402 1401 1399 1396 1394 1394 1393 1392 1391 1390 1389 1389 1388 1386 1383 1381 1379 1378 1377 1376 1375 1374 1373
1428 1426 1425 1424 1422 1421 1420 1418 1417 1415 1414 1412 1410 1408 1407 1404 1402 1401 1399 1397 1395 1394 1392 1389 1388 1389 1388 1386 1385 1384 1383 1382 1380 1377 1376 1374 1373 1372 1371 1370 1370 1369
1423 1422 1420 1419 1418 1417 1415 1414 1413 1411 1409 1408 1406 1403 1402 1400 1398 1396 1394 1392 1390 1389 1387 1384 1383 1383 1382 1381 1380 1379 1378 1377 1374 1372 1370 1368 1368 1367 1366 1366 1365 1364
1419 1418 1416 1415 1414 1412 1411 1410 1408 1406 1405 1404 1401 1399 1397 1395 1393 1391 1389 1387 1385 1384 1382 1380 1377 1377 1377 1376 1374 1374 1373 1372 1369 1367 1365 1363 1363 1362 1362 1361 1361 1360
1415 1414 1412 1411 1410 1408 1407 1405 1403 1402 1401 1399 1397 1395 1392 1391 1389 1386 1384 1383 1381 1379 1377 1375 1373 1372 1372 1371 1369 1368 1368 1367 1365 1363 1361 1359 1358 1358 1357 1357 1356 1356
1412 1410 1408 1407 1406 1404 1403 1401 1399 1398 1396 1394 1393 1391 1388 1386 1384 1382 1379 1378 1376 1374 1372 1371 1368 1367 1367 1366 1364 1363 1363 1362 1361 1359 1357 1355 1355 1354 1353 1352 1351 1351